BEL5TR EBBR-DTMB

Flight info

Callsign BEL5TR
Flight time 2h 36m
Altitude 36000
Route ROUSY DCT GTQ DCT DEVDI DCT ODINA DCT BETEN DCT ELB DCT VELAD DCT PININ DCT TUNEX/N0451F360 DCT ATLEL ATLEL1R
Aircraft A320/M-SDE3FGHIRWY/LB1

Departure

Time 2026-05-06 09:49
Airport Brussels Airport (EBBR)

Arrival

Time 2026-05-06 12:26
Airport Monastir Habib Bourguiba International Airport (DTMB)
Time Latitude Longitude Altitude Speed Heading
2026-05-06 08:59 50.90244 4.48464 121 ft 0 kts 335°
2026-05-06 09:39 50.90242 4.48465 121 ft 2 kts 335°
2026-05-06 09:39 50.90218 4.48481 118 ft 4 kts 341°
2026-05-06 09:39 50.90192 4.48492 119 ft 4 kts 354°
2026-05-06 09:39 50.90167 4.48490 120 ft 4 kts 32°
2026-05-06 09:40 50.90157 4.48474 122 ft 1 kts 65°
2026-05-06 09:40 50.90156 4.48471 122 ft 1 kts 65°
2026-05-06 09:44 50.90162 4.48491 122 ft 5 kts 65°
2026-05-06 09:44 50.90185 4.48574 123 ft 12 kts 65°
2026-05-06 09:44 50.90215 4.48678 121 ft 12 kts 65°
2026-05-06 09:45 50.90254 4.48813 124 ft 14 kts 65°
2026-05-06 09:45 50.90299 4.48968 123 ft 16 kts 66°
2026-05-06 09:45 50.90348 4.49136 120 ft 14 kts 65°
2026-05-06 09:45 50.90399 4.49313 121 ft 16 kts 67°
2026-05-06 09:46 50.90445 4.49471 123 ft 11 kts 64°
2026-05-06 09:46 50.90492 4.49601 121 ft 16 kts 38°
2026-05-06 09:46 50.90619 4.49659 124 ft 22 kts 14°
2026-05-06 09:46 50.90762 4.49716 124 ft 21 kts 14°
2026-05-06 09:47 50.90900 4.49775 121 ft 17 kts 16°
2026-05-06 09:47 50.90995 4.49876 120 ft 12 kts 32°
2026-05-06 09:47 50.91078 4.49937 120 ft 14 kts 21°
2026-05-06 09:47 50.91130 4.49860 118 ft 14 kts 254°
2026-05-06 09:48 50.91107 4.49772 117 ft 6 kts 246°
2026-05-06 09:48 50.91050 4.49578 117 ft 48 kts 245°
2026-05-06 09:48 50.90816 4.48768 120 ft 110 kts 245°
2026-05-06 09:48 50.90427 4.47415 124 ft 158 kts 245°
2026-05-06 09:49 50.89948 4.45720 480 ft 170 kts 246°
2026-05-06 09:49 50.89449 4.44002 1095 ft 173 kts 250°
2026-05-06 09:49 50.88923 4.42226 1664 ft 179 kts 250°
2026-05-06 09:49 50.88217 4.40594 2249 ft 184 kts 218°
2026-05-06 09:50 50.86992 4.39827 2538 ft 202 kts 179°
2026-05-06 09:50 50.85617 4.40462 2751 ft 216 kts 139°
2026-05-06 09:50 50.84723 4.42412 2974 ft 230 kts 108°
2026-05-06 09:50 50.84099 4.44889 3348 ft 252 kts 108°
2026-05-06 09:51 50.83453 4.47508 4090 ft 258 kts 108°
2026-05-06 09:51 50.82690 4.50099 4928 ft 264 kts 122°
2026-05-06 09:51 50.81510 4.52372 5723 ft 270 kts 128°
2026-05-06 09:51 50.80264 4.54632 6493 ft 275 kts 129°
2026-05-06 09:52 50.79296 4.56367 7048 ft 278 kts 129°
2026-05-06 09:52 50.78000 4.58674 7781 ft 282 kts 130°
2026-05-06 09:52 50.76690 4.61016 8533 ft 287 kts 129°
2026-05-06 09:52 50.75366 4.63397 9289 ft 290 kts 130°
2026-05-06 09:53 50.74028 4.65812 10059 ft 294 kts 130°
2026-05-06 09:53 50.72650 4.68295 10300 ft 316 kts 129°
2026-05-06 09:53 50.71147 4.71007 10453 ft 339 kts 128°
2026-05-06 09:53 50.69747 4.74145 10677 ft 356 kts 117°
2026-05-06 09:54 50.68725 4.77743 11228 ft 360 kts 107°
2026-05-06 09:54 50.68023 4.81548 11890 ft 363 kts 104°
2026-05-06 09:54 50.67329 4.85388 12556 ft 366 kts 105°
2026-05-06 09:54 50.66469 4.89176 13208 ft 370 kts 115°
2026-05-06 09:55 50.65173 4.92640 13858 ft 373 kts 126°
2026-05-06 09:55 50.63456 4.95732 14439 ft 378 kts 135°
2026-05-06 09:55 50.61575 4.98644 14988 ft 381 kts 135°
2026-05-06 09:55 50.59667 5.01588 15515 ft 385 kts 135°
2026-05-06 09:56 50.57744 5.04555 16026 ft 390 kts 135°
2026-05-06 09:56 50.55799 5.07558 16545 ft 394 kts 135°
2026-05-06 09:56 50.53807 5.10633 17059 ft 398 kts 135°
2026-05-06 09:56 50.51855 5.13648 17600 ft 401 kts 137°
2026-05-06 09:57 50.49856 5.16727 18169 ft 404 kts 136°
2026-05-06 09:57 50.47841 5.19827 18644 ft 406 kts 136°
2026-05-06 09:57 50.45816 5.22938 19118 ft 409 kts 137°
2026-05-06 09:57 50.43776 5.26068 19590 ft 412 kts 137°
2026-05-06 09:58 50.41721 5.29217 20059 ft 414 kts 136°
2026-05-06 09:58 50.39652 5.32385 20512 ft 416 kts 136°
2026-05-06 09:58 50.37577 5.35563 20950 ft 419 kts 136°
2026-05-06 09:58 50.35489 5.38762 21380 ft 421 kts 136°
2026-05-06 09:59 50.33387 5.41976 21804 ft 423 kts 136°
2026-05-06 09:59 50.31276 5.45196 22208 ft 425 kts 136°
2026-05-06 09:59 50.29150 5.48429 22610 ft 428 kts 136°
2026-05-06 09:59 50.27008 5.51673 22997 ft 430 kts 136°
2026-05-06 10:00 50.24882 5.54881 23412 ft 432 kts 137°
2026-05-06 10:00 50.22714 5.58147 23757 ft 434 kts 137°
2026-05-06 10:00 50.20539 5.61431 24139 ft 436 kts 136°
2026-05-06 10:00 50.18362 5.64727 24464 ft 437 kts 136°
2026-05-06 10:01 50.16175 5.68042 24783 ft 439 kts 136°
2026-05-06 10:01 50.13978 5.71361 25087 ft 440 kts 136°
2026-05-06 10:01 50.11773 5.74678 25378 ft 442 kts 136°
2026-05-06 10:01 50.09489 5.77893 25652 ft 443 kts 142°
2026-05-06 10:02 50.06927 5.80564 25928 ft 445 kts 151°
2026-05-06 10:02 50.04113 5.82580 26201 ft 446 kts 161°
2026-05-06 10:02 50.01178 5.84096 26520 ft 445 kts 163°
2026-05-06 10:02 49.98235 5.85605 26814 ft 445 kts 163°
2026-05-06 10:03 49.95291 5.87121 27077 ft 446 kts 163°
2026-05-06 10:03 49.92367 5.88636 27343 ft 448 kts 163°
2026-05-06 10:03 49.89402 5.90179 27557 ft 450 kts 162°
2026-05-06 10:03 49.86428 5.91722 27846 ft 449 kts 164°
2026-05-06 10:04 49.83472 5.93251 28203 ft 447 kts 165°
2026-05-06 10:04 49.80528 5.94762 28578 ft 444 kts 165°
2026-05-06 10:04 49.77604 5.96257 28990 ft 441 kts 165°
2026-05-06 10:04 49.74738 5.97721 29351 ft 439 kts 165°
2026-05-06 10:05 49.71840 5.99197 29689 ft 437 kts 165°
2026-05-06 10:05 49.68956 6.00661 29991 ft 436 kts 165°
2026-05-06 10:05 49.66074 6.02126 30239 ft 436 kts 165°
2026-05-06 10:05 49.63195 6.03595 30486 ft 436 kts 165°
2026-05-06 10:06 49.60315 6.05069 30738 ft 435 kts 165°
2026-05-06 10:06 49.57443 6.06538 30970 ft 434 kts 164°
2026-05-06 10:06 49.54576 6.08001 31273 ft 433 kts 164°
2026-05-06 10:06 49.51719 6.09453 31538 ft 432 kts 164°
2026-05-06 10:07 49.48899 6.11083 31772 ft 434 kts 157°
2026-05-06 10:07 49.46259 6.13350 31994 ft 437 kts 148°
2026-05-06 10:07 49.43830 6.16209 32217 ft 440 kts 144°
2026-05-06 10:07 49.41484 6.19126 32426 ft 440 kts 144°
2026-05-06 10:08 49.39071 6.22119 32664 ft 440 kts 144°
2026-05-06 10:08 49.36725 6.25022 32886 ft 440 kts 144°
2026-05-06 10:08 49.34351 6.27957 33239 ft 435 kts 144°
2026-05-06 10:08 49.32000 6.30858 33582 ft 433 kts 144°
2026-05-06 10:09 49.29657 6.33742 33825 ft 432 kts 144°
2026-05-06 10:09 49.27315 6.36617 34027 ft 432 kts 144°
2026-05-06 10:09 49.24969 6.39499 34217 ft 432 kts 144°
2026-05-06 10:09 49.22620 6.42384 34397 ft 433 kts 144°
2026-05-06 10:10 49.20267 6.45273 34560 ft 433 kts 144°
2026-05-06 10:10 49.17916 6.48154 34724 ft 434 kts 144°
2026-05-06 10:10 49.15559 6.51037 34884 ft 434 kts 144°
2026-05-06 10:10 49.13194 6.53920 35044 ft 435 kts 144°
2026-05-06 10:11 49.10834 6.56794 35206 ft 435 kts 144°
2026-05-06 10:11 49.08469 6.59676 35373 ft 435 kts 144°
2026-05-06 10:11 49.06100 6.62562 35503 ft 435 kts 144°
2026-05-06 10:11 49.03737 6.65434 35654 ft 435 kts 144°
2026-05-06 10:12 49.01368 6.68314 35780 ft 436 kts 144°
2026-05-06 10:12 48.98933 6.71080 35805 ft 436 kts 150°
2026-05-06 10:12 48.93560 6.75119 35803 ft 434 kts 158°
2026-05-06 10:13 48.88040 6.78866 35810 ft 434 kts 158°
2026-05-06 10:13 48.82498 6.82626 35809 ft 436 kts 158°
2026-05-06 10:14 48.76950 6.86392 35805 ft 437 kts 158°
2026-05-06 10:14 48.71433 6.90135 35805 ft 437 kts 158°
2026-05-06 10:15 48.65887 6.93886 35808 ft 437 kts 158°
2026-05-06 10:15 48.60334 6.97625 35787 ft 437 kts 159°
2026-05-06 10:16 48.54776 7.01360 35790 ft 437 kts 159°
2026-05-06 10:16 48.49222 7.05096 35793 ft 437 kts 159°
2026-05-06 10:17 48.43665 7.08815 35798 ft 437 kts 159°
2026-05-06 10:17 48.38107 7.12521 35810 ft 437 kts 159°
2026-05-06 10:18 48.32544 7.16232 35812 ft 437 kts 159°
2026-05-06 10:18 48.27026 7.19900 35815 ft 437 kts 159°
2026-05-06 10:19 48.21473 7.23576 35814 ft 436 kts 159°
2026-05-06 10:19 48.15921 7.27249 35812 ft 435 kts 160°
2026-05-06 10:20 48.10397 7.30896 35831 ft 433 kts 160°
2026-05-06 10:20 48.04895 7.34521 35833 ft 431 kts 160°
2026-05-06 10:21 48.00329 7.37520 35832 ft 430 kts 160°
2026-05-06 10:21 47.94854 7.41100 35828 ft 429 kts 160°
2026-05-06 10:22 47.89392 7.44680 35843 ft 429 kts 160°
2026-05-06 10:22 47.83937 7.48242 35848 ft 428 kts 161°
2026-05-06 10:23 47.78485 7.51786 35855 ft 427 kts 161°
2026-05-06 10:23 47.73048 7.55320 35858 ft 427 kts 160°
2026-05-06 10:24 47.67665 7.59050 35832 ft 427 kts 159°
2026-05-06 10:24 47.62322 7.62889 35846 ft 426 kts 159°
2026-05-06 10:25 47.56986 7.66690 35847 ft 425 kts 159°
2026-05-06 10:25 47.51683 7.70416 35842 ft 424 kts 160°
2026-05-06 10:26 47.46343 7.74139 35843 ft 424 kts 160°
2026-05-06 10:26 47.41002 7.77861 35844 ft 424 kts 160°
2026-05-06 10:27 47.35666 7.81586 35844 ft 424 kts 160°
2026-05-06 10:27 47.30317 7.85303 35841 ft 424 kts 160°
2026-05-06 10:28 47.24969 7.89007 35847 ft 425 kts 160°
2026-05-06 10:28 47.19613 7.92712 35850 ft 425 kts 160°
2026-05-06 10:29 47.14252 7.96416 35853 ft 425 kts 160°
2026-05-06 10:29 47.08903 8.00108 35833 ft 425 kts 160°
2026-05-06 10:30 47.03547 8.03786 35832 ft 425 kts 160°
2026-05-06 10:30 46.98217 8.07442 35834 ft 426 kts 160°
2026-05-06 10:31 46.92848 8.11106 35838 ft 426 kts 160°
2026-05-06 10:31 46.87479 8.14766 35831 ft 426 kts 160°
2026-05-06 10:32 46.82113 8.18419 35833 ft 426 kts 161°
2026-05-06 10:32 46.76740 8.22079 35842 ft 426 kts 161°
2026-05-06 10:33 46.71359 8.25726 35847 ft 426 kts 161°
2026-05-06 10:33 46.65994 8.29356 35844 ft 427 kts 161°
2026-05-06 10:34 46.60615 8.32989 35856 ft 426 kts 161°
2026-05-06 10:34 46.55242 8.36612 35858 ft 425 kts 161°
2026-05-06 10:35 46.49912 8.40198 35863 ft 424 kts 161°
2026-05-06 10:35 46.44509 8.43821 35861 ft 425 kts 161°
2026-05-06 10:36 46.39173 8.47388 35850 ft 425 kts 162°
2026-05-06 10:36 46.33813 8.50977 35850 ft 424 kts 162°
2026-05-06 10:37 46.28443 8.54550 35866 ft 425 kts 162°
2026-05-06 10:37 46.23072 8.58121 35849 ft 424 kts 162°
2026-05-06 10:38 46.17678 8.61694 35866 ft 424 kts 162°
2026-05-06 10:38 46.12360 8.65208 35847 ft 422 kts 162°
2026-05-06 10:39 46.06906 8.68093 35853 ft 416 kts 169°
2026-05-06 10:39 46.01379 8.70591 35842 ft 416 kts 169°
2026-05-06 10:40 45.95857 8.73077 35838 ft 416 kts 169°
2026-05-06 10:40 45.90334 8.75562 35859 ft 415 kts 169°
2026-05-06 10:41 45.84820 8.78042 35867 ft 415 kts 169°
2026-05-06 10:41 45.79310 8.80508 35849 ft 415 kts 169°
2026-05-06 10:42 45.73801 8.82974 35854 ft 415 kts 169°
2026-05-06 10:42 45.68299 8.85431 35866 ft 414 kts 169°
2026-05-06 10:43 45.62796 8.87885 35864 ft 414 kts 169°
2026-05-06 10:44 45.54569 8.91537 35853 ft 414 kts 169°
2026-05-06 10:44 45.49058 8.93980 35864 ft 415 kts 169°
2026-05-06 10:45 45.43556 8.96416 35827 ft 414 kts 170°
2026-05-06 10:45 45.38064 8.98843 35840 ft 413 kts 170°
2026-05-06 10:46 45.32573 9.01262 35856 ft 413 kts 170°
2026-05-06 10:46 45.27083 9.03672 35851 ft 412 kts 170°
2026-05-06 10:47 45.21604 9.06076 35850 ft 412 kts 170°
2026-05-06 10:47 45.16122 9.08478 35845 ft 412 kts 170°
2026-05-06 10:48 45.10642 9.10873 35846 ft 412 kts 170°
2026-05-06 10:48 45.05201 9.13241 35849 ft 412 kts 170°
2026-05-06 10:49 44.99720 9.15622 35839 ft 412 kts 170°
2026-05-06 10:49 44.94240 9.18010 35845 ft 412 kts 170°
2026-05-06 10:50 44.88760 9.20399 35827 ft 412 kts 170°
2026-05-06 10:50 44.83275 9.22773 35842 ft 412 kts 170°
2026-05-06 10:51 44.77791 9.25139 35835 ft 412 kts 170°
2026-05-06 10:51 44.72304 9.27505 35844 ft 412 kts 170°
2026-05-06 10:52 44.66815 9.29852 35851 ft 412 kts 170°
2026-05-06 10:52 44.61328 9.32213 35857 ft 413 kts 170°
2026-05-06 10:53 44.55832 9.34575 35854 ft 413 kts 170°
2026-05-06 10:53 44.50343 9.36923 35855 ft 413 kts 170°
2026-05-06 10:54 44.44843 9.39260 35871 ft 413 kts 170°
2026-05-06 10:54 44.39334 9.41595 35871 ft 413 kts 170°
2026-05-06 10:55 44.33830 9.43932 35880 ft 414 kts 170°
2026-05-06 10:55 44.28353 9.46258 35870 ft 414 kts 170°
2026-05-06 10:56 44.22836 9.48595 35870 ft 415 kts 170°
2026-05-06 10:56 44.17300 9.50942 35875 ft 416 kts 170°
2026-05-06 10:57 44.11750 9.53289 35890 ft 417 kts 171°
2026-05-06 10:57 44.06218 9.55613 35902 ft 418 kts 171°
2026-05-06 10:58 44.00709 9.57925 35892 ft 418 kts 170°
2026-05-06 10:58 43.95128 9.60260 35899 ft 419 kts 170°
2026-05-06 10:59 43.89541 9.62596 35905 ft 419 kts 170°
2026-05-06 10:59 43.83960 9.64931 35908 ft 419 kts 170°
2026-05-06 11:00 43.78405 9.67249 35906 ft 419 kts 170°
2026-05-06 11:00 43.72815 9.69575 35924 ft 419 kts 170°
2026-05-06 11:01 43.67227 9.71896 35925 ft 419 kts 170°
2026-05-06 11:01 43.61636 9.74211 35924 ft 419 kts 170°
2026-05-06 11:02 43.56045 9.76578 35899 ft 424 kts 166°
2026-05-06 11:02 43.50724 9.80358 35904 ft 433 kts 158°
2026-05-06 11:03 43.45476 9.84427 35895 ft 433 kts 157°
2026-05-06 11:03 43.40196 9.88493 35912 ft 435 kts 157°
2026-05-06 11:04 43.34943 9.92537 35918 ft 435 kts 157°
2026-05-06 11:04 43.29655 9.96597 35922 ft 435 kts 157°
2026-05-06 11:05 43.24365 10.00653 35923 ft 435 kts 157°
2026-05-06 11:05 43.19078 10.04715 35924 ft 435 kts 157°
2026-05-06 11:06 43.13783 10.08756 35912 ft 435 kts 157°
2026-05-06 11:06 43.08483 10.12780 35918 ft 436 kts 157°
2026-05-06 11:07 43.03180 10.16812 35922 ft 436 kts 157°
2026-05-06 11:07 42.97915 10.20816 35895 ft 436 kts 157°
2026-05-06 11:08 42.92601 10.24843 35899 ft 436 kts 157°
2026-05-06 11:08 42.87288 10.28852 35918 ft 436 kts 157°
2026-05-06 11:09 42.81979 10.32858 35923 ft 437 kts 157°
2026-05-06 11:09 42.76659 10.36860 35930 ft 437 kts 157°
2026-05-06 11:10 42.72198 10.40041 35912 ft 431 kts 164°
2026-05-06 11:10 42.66638 10.43078 35923 ft 431 kts 165°
2026-05-06 11:11 42.61065 10.46126 35928 ft 432 kts 165°
2026-05-06 11:11 42.54584 10.49664 35932 ft 432 kts 165°
2026-05-06 11:12 42.49908 10.52206 35924 ft 432 kts 165°
2026-05-06 11:12 42.44333 10.55235 35934 ft 432 kts 165°
2026-05-06 11:13 42.38793 10.58246 35924 ft 432 kts 165°
2026-05-06 11:13 42.33212 10.61266 35936 ft 432 kts 165°
2026-05-06 11:14 42.27628 10.64279 35949 ft 432 kts 165°
2026-05-06 11:14 42.22046 10.67292 35953 ft 432 kts 165°
2026-05-06 11:15 42.16458 10.70300 35962 ft 432 kts 165°
2026-05-06 11:15 42.10866 10.73291 35951 ft 432 kts 165°
2026-05-06 11:16 42.05254 10.76106 35966 ft 425 kts 172°
2026-05-06 11:16 41.99491 10.77286 35976 ft 418 kts 180°
2026-05-06 11:17 41.93718 10.78208 35977 ft 417 kts 179°
2026-05-06 11:17 41.87951 10.79138 35961 ft 417 kts 179°
2026-05-06 11:18 41.82190 10.80076 35971 ft 417 kts 179°
2026-05-06 11:18 41.76425 10.81015 35978 ft 417 kts 179°
2026-05-06 11:19 41.70657 10.81945 35979 ft 417 kts 179°
2026-05-06 11:19 41.64887 10.82867 35966 ft 418 kts 179°
2026-05-06 11:20 41.59145 10.83786 35971 ft 418 kts 179°
2026-05-06 11:20 41.53356 10.84719 35975 ft 418 kts 179°
2026-05-06 11:21 41.47571 10.85636 35982 ft 419 kts 179°
2026-05-06 11:21 41.41776 10.86564 35969 ft 419 kts 179°
2026-05-06 11:22 41.35979 10.87495 35983 ft 420 kts 179°
2026-05-06 11:22 41.30168 10.88411 35983 ft 420 kts 179°
2026-05-06 11:23 41.24400 10.89327 35979 ft 420 kts 179°
2026-05-06 11:23 41.18582 10.90256 35978 ft 421 kts 179°
2026-05-06 11:24 41.12758 10.91188 35989 ft 421 kts 179°
2026-05-06 11:24 41.06941 10.92100 35986 ft 421 kts 179°
2026-05-06 11:25 41.01114 10.93016 35962 ft 422 kts 179°
2026-05-06 11:25 40.95272 10.93938 35969 ft 423 kts 179°
2026-05-06 11:26 40.89424 10.94853 35973 ft 424 kts 179°
2026-05-06 11:26 40.83566 10.95769 35978 ft 424 kts 179°
2026-05-06 11:27 40.77697 10.96696 35971 ft 425 kts 179°
2026-05-06 11:27 40.71810 10.97618 35979 ft 426 kts 179°
2026-05-06 11:28 40.65919 10.98543 35986 ft 426 kts 179°
2026-05-06 11:28 40.60021 10.99457 35975 ft 426 kts 179°
2026-05-06 11:29 40.54130 11.00375 35985 ft 426 kts 180°
2026-05-06 11:29 40.48266 11.01295 35991 ft 427 kts 180°
2026-05-06 11:30 40.42373 11.02207 35997 ft 426 kts 180°
2026-05-06 11:30 40.36477 11.03108 35979 ft 426 kts 181°
2026-05-06 11:31 40.30596 11.04014 35997 ft 425 kts 181°
2026-05-06 11:31 40.24724 11.04920 36013 ft 425 kts 181°
2026-05-06 11:32 40.18857 11.05823 36012 ft 424 kts 181°
2026-05-06 11:32 40.12987 11.06728 36013 ft 424 kts 181°
2026-05-06 11:33 40.07164 11.07624 36018 ft 424 kts 181°
2026-05-06 11:33 40.01303 11.08524 36018 ft 424 kts 181°
2026-05-06 11:34 39.95443 11.09415 36016 ft 424 kts 181°
2026-05-06 11:34 39.89578 11.10303 36002 ft 424 kts 181°
2026-05-06 11:35 39.83718 11.11191 36014 ft 424 kts 181°
2026-05-06 11:35 39.77868 11.12078 36018 ft 424 kts 181°
2026-05-06 11:36 39.72007 11.12973 36022 ft 423 kts 181°
2026-05-06 11:36 39.66152 11.13863 36014 ft 423 kts 181°
2026-05-06 11:37 39.60302 11.14747 36012 ft 423 kts 181°
2026-05-06 11:37 39.54453 11.15628 36015 ft 423 kts 181°
2026-05-06 11:38 39.48605 11.16511 35997 ft 423 kts 181°
2026-05-06 11:38 39.42760 11.17398 36017 ft 423 kts 181°
2026-05-06 11:39 39.36957 11.18272 36024 ft 422 kts 181°
2026-05-06 11:39 39.31119 11.19142 36026 ft 422 kts 181°
2026-05-06 11:40 39.25285 11.20011 36009 ft 422 kts 181°
2026-05-06 11:40 39.19463 11.20883 36016 ft 421 kts 181°
2026-05-06 11:41 39.13632 11.21753 36021 ft 421 kts 181°
2026-05-06 11:41 39.07809 11.22615 36024 ft 421 kts 181°
2026-05-06 11:42 39.01988 11.23485 35992 ft 421 kts 180°
2026-05-06 11:42 38.96148 11.24351 35997 ft 423 kts 180°
2026-05-06 11:43 38.90292 11.25223 36005 ft 424 kts 180°
2026-05-06 11:43 38.84436 11.26087 36010 ft 424 kts 180°
2026-05-06 11:44 38.75624 11.27391 35997 ft 425 kts 180°
2026-05-06 11:44 38.69739 11.28247 36003 ft 426 kts 180°
2026-05-06 11:45 38.63890 11.29106 36005 ft 426 kts 180°
2026-05-06 11:45 38.57963 11.29975 36007 ft 426 kts 180°
2026-05-06 11:46 38.52057 11.30839 35974 ft 428 kts 180°
2026-05-06 11:46 38.46161 11.31707 35980 ft 430 kts 180°
2026-05-06 11:47 38.40206 11.32580 35982 ft 431 kts 180°
2026-05-06 11:47 38.34235 11.33454 35982 ft 432 kts 180°
2026-05-06 11:48 38.28258 11.34326 35970 ft 433 kts 180°
2026-05-06 11:48 38.22266 11.35190 35977 ft 434 kts 180°
2026-05-06 11:49 38.16251 11.36055 35983 ft 435 kts 180°
2026-05-06 11:49 38.10236 11.36934 35986 ft 436 kts 180°
2026-05-06 11:50 38.04210 11.37810 35757 ft 434 kts 180°
2026-05-06 11:50 38.01202 11.38244 34992 ft 435 kts 180°
2026-05-06 11:50 37.98234 11.38672 34229 ft 436 kts 180°
2026-05-06 11:51 37.95217 11.39057 33373 ft 434 kts 183°
2026-05-06 11:51 37.92215 11.38978 32463 ft 430 kts 191°
2026-05-06 11:51 37.89279 11.38348 31498 ft 428 kts 198°
2026-05-06 11:51 37.86362 11.37461 30492 ft 433 kts 197°
2026-05-06 11:52 37.83412 11.36572 29369 ft 438 kts 197°
2026-05-06 11:52 37.80432 11.35683 28200 ft 442 kts 197°
2026-05-06 11:52 37.77442 11.34796 27059 ft 444 kts 197°
2026-05-06 11:52 37.74426 11.33903 26151 ft 443 kts 197°
2026-05-06 11:53 37.71437 11.33019 25941 ft 441 kts 197°
2026-05-06 11:53 37.68440 11.32133 25980 ft 443 kts 197°
2026-05-06 11:53 37.65439 11.31245 25979 ft 443 kts 197°
2026-05-06 11:53 37.62431 11.30354 25974 ft 444 kts 197°
2026-05-06 11:54 37.59426 11.29460 25975 ft 444 kts 197°
2026-05-06 11:54 37.56464 11.28571 25979 ft 443 kts 197°
2026-05-06 11:54 37.53467 11.27664 25977 ft 443 kts 197°
2026-05-06 11:54 37.50467 11.26755 25977 ft 443 kts 197°
2026-05-06 11:55 37.47469 11.25846 25974 ft 443 kts 197°
2026-05-06 11:55 37.44471 11.24937 25965 ft 443 kts 197°
2026-05-06 11:55 37.41474 11.24035 25946 ft 443 kts 197°
2026-05-06 11:55 37.38465 11.23128 25719 ft 443 kts 197°
2026-05-06 11:56 37.35477 11.22227 25324 ft 441 kts 197°
2026-05-06 11:56 37.32499 11.21328 24845 ft 439 kts 197°
2026-05-06 11:56 37.29539 11.20439 24380 ft 437 kts 197°
2026-05-06 11:56 37.26585 11.19553 23921 ft 435 kts 197°
2026-05-06 11:57 37.23649 11.18676 23459 ft 433 kts 197°
2026-05-06 11:57 37.20726 11.17802 22921 ft 430 kts 197°
2026-05-06 11:57 37.17832 11.16935 22395 ft 426 kts 197°
2026-05-06 11:57 37.14961 11.16078 21861 ft 423 kts 197°
2026-05-06 11:58 37.12110 11.15229 21351 ft 419 kts 197°
2026-05-06 11:58 37.09289 11.14387 20849 ft 415 kts 196°
2026-05-06 11:58 37.06500 11.13553 20351 ft 411 kts 197°
2026-05-06 11:58 37.03730 11.12723 19873 ft 407 kts 197°
2026-05-06 11:59 37.00992 11.11902 19397 ft 403 kts 196°
2026-05-06 11:59 36.99188 11.11362 19082 ft 400 kts 196°
2026-05-06 11:59 36.96494 11.10558 18624 ft 397 kts 196°
2026-05-06 11:59 36.93817 11.09760 18133 ft 393 kts 196°
2026-05-06 12:00 36.90311 11.08719 17435 ft 388 kts 196°
2026-05-06 12:00 36.88546 11.08196 17086 ft 385 kts 196°
2026-05-06 12:00 36.85953 11.07429 16577 ft 381 kts 195°
2026-05-06 12:00 36.83384 11.06667 16074 ft 377 kts 195°
2026-05-06 12:01 36.80840 11.05911 15574 ft 374 kts 195°
2026-05-06 12:01 36.78313 11.05161 15089 ft 370 kts 195°
2026-05-06 12:01 36.75854 11.04432 14616 ft 367 kts 195°
2026-05-06 12:01 36.73380 11.03701 14146 ft 363 kts 194°
2026-05-06 12:02 36.70933 11.02980 13656 ft 361 kts 194°
2026-05-06 12:02 36.68490 11.02263 13145 ft 359 kts 194°
2026-05-06 12:02 36.66119 11.01352 12627 ft 355 kts 205°
2026-05-06 12:02 36.63940 10.99915 12126 ft 353 kts 208°
2026-05-06 12:03 36.61798 10.98435 11624 ft 351 kts 208°
2026-05-06 12:03 36.59673 10.96960 11134 ft 348 kts 208°
2026-05-06 12:03 36.57572 10.95497 10651 ft 345 kts 208°
2026-05-06 12:03 36.55485 10.94039 10171 ft 340 kts 208°
2026-05-06 12:04 36.53482 10.92631 9685 ft 320 kts 208°
2026-05-06 12:04 36.51600 10.91303 9166 ft 302 kts 208°
2026-05-06 12:04 36.49823 10.90033 8661 ft 287 kts 208°
2026-05-06 12:04 36.48131 10.88818 8164 ft 275 kts 208°
2026-05-06 12:05 36.46500 10.87649 7673 ft 265 kts 208°
2026-05-06 12:05 36.44930 10.86513 7193 ft 259 kts 208°
2026-05-06 12:05 36.43403 10.85399 6710 ft 257 kts 208°
2026-05-06 12:05 36.41861 10.84263 6238 ft 260 kts 208°
2026-05-06 12:06 36.40321 10.83120 6003 ft 254 kts 208°
2026-05-06 12:06 36.38793 10.81989 6032 ft 257 kts 208°
2026-05-06 12:06 36.37255 10.80844 6035 ft 258 kts 208°
2026-05-06 12:06 36.35719 10.79696 6028 ft 258 kts 208°
2026-05-06 12:07 36.34178 10.78552 6034 ft 257 kts 208°
2026-05-06 12:07 36.32644 10.77409 6028 ft 258 kts 208°
2026-05-06 12:07 36.31106 10.76262 6031 ft 258 kts 208°
2026-05-06 12:07 36.29565 10.75117 6027 ft 258 kts 208°
2026-05-06 12:08 36.28023 10.73972 6032 ft 259 kts 208°
2026-05-06 12:08 36.26478 10.72827 6031 ft 259 kts 208°
2026-05-06 12:08 36.24933 10.71671 6028 ft 260 kts 208°
2026-05-06 12:08 36.23391 10.70511 5903 ft 258 kts 208°
2026-05-06 12:09 36.21859 10.69352 5430 ft 258 kts 208°
2026-05-06 12:09 36.20362 10.68115 4992 ft 260 kts 215°
2026-05-06 12:09 36.19012 10.66662 4567 ft 260 kts 218°
2026-05-06 12:09 36.17669 10.65153 4099 ft 262 kts 219°
2026-05-06 12:10 36.16308 10.63647 3648 ft 262 kts 217°
2026-05-06 12:10 36.14962 10.62145 3521 ft 261 kts 219°
2026-05-06 12:10 36.13608 10.60627 3530 ft 264 kts 218°
2026-05-06 12:10 36.12247 10.59096 3528 ft 265 kts 218°
2026-05-06 12:11 36.10879 10.57571 3537 ft 264 kts 217°
2026-05-06 12:11 36.09501 10.56042 3536 ft 268 kts 218°
2026-05-06 12:11 36.08125 10.54541 3532 ft 255 kts 218°
2026-05-06 12:11 36.06847 10.53130 3530 ft 237 kts 219°
2026-05-06 12:12 36.05665 10.51818 3531 ft 220 kts 218°
2026-05-06 12:12 36.04548 10.50550 3539 ft 217 kts 218°
2026-05-06 12:12 36.03447 10.49276 3550 ft 216 kts 218°
2026-05-06 12:12 36.02374 10.47987 3538 ft 215 kts 218°
2026-05-06 12:13 36.01284 10.46731 3501 ft 213 kts 214°
2026-05-06 12:13 36.00152 10.45557 3210 ft 212 kts 213°
2026-05-06 12:13 35.99001 10.44408 3036 ft 214 kts 213°
2026-05-06 12:13 35.97839 10.43260 3031 ft 215 kts 213°
2026-05-06 12:14 35.96673 10.42092 3029 ft 216 kts 214°
2026-05-06 12:14 35.95520 10.40950 3031 ft 215 kts 214°
2026-05-06 12:14 35.94334 10.39834 3029 ft 213 kts 202°
2026-05-06 12:14 35.92971 10.39266 3025 ft 205 kts 188°
2026-05-06 12:15 35.91557 10.38968 3023 ft 208 kts 185°
2026-05-06 12:15 35.90117 10.38723 3021 ft 209 kts 184°
2026-05-06 12:15 35.88686 10.38473 3013 ft 207 kts 183°
2026-05-06 12:15 35.87265 10.38218 3012 ft 206 kts 184°
2026-05-06 12:16 35.85844 10.37972 2982 ft 203 kts 184°
2026-05-06 12:16 35.84490 10.37744 3015 ft 192 kts 184°
2026-05-06 12:16 35.83187 10.37516 2998 ft 187 kts 182°
2026-05-06 12:16 35.81917 10.37274 2988 ft 183 kts 184°
2026-05-06 12:17 35.80647 10.37054 2983 ft 183 kts 183°
2026-05-06 12:17 35.79383 10.36811 2984 ft 186 kts 182°
2026-05-06 12:17 35.78103 10.36540 2978 ft 186 kts 184°
2026-05-06 12:17 35.76837 10.36283 2973 ft 184 kts 182°
2026-05-06 12:18 35.75607 10.36447 2973 ft 176 kts 153°
2026-05-06 12:18 35.74670 10.37355 2974 ft 172 kts 124°
2026-05-06 12:18 35.74108 10.38651 2974 ft 171 kts 117°
2026-05-06 12:18 35.73577 10.39956 2975 ft 173 kts 117°
2026-05-06 12:19 35.73035 10.41291 2978 ft 171 kts 116°
2026-05-06 12:19 35.72507 10.42586 2976 ft 172 kts 116°
2026-05-06 12:19 35.71969 10.43905 2977 ft 172 kts 116°
2026-05-06 12:19 35.71431 10.45225 2956 ft 168 kts 116°
2026-05-06 12:20 35.70915 10.46488 2691 ft 169 kts 115°
2026-05-06 12:20 35.70382 10.47796 2502 ft 168 kts 115°
2026-05-06 12:20 35.70033 10.49172 2162 ft 170 kts 95°
2026-05-06 12:20 35.70151 10.50600 1903 ft 165 kts 74°
2026-05-06 12:21 35.70449 10.51984 1889 ft 168 kts 75°
2026-05-06 12:21 35.70671 10.53385 1883 ft 170 kts 81°
2026-05-06 12:21 35.70891 10.54792 1876 ft 167 kts 76°
2026-05-06 12:21 35.71184 10.56198 1873 ft 161 kts 74°
2026-05-06 12:22 35.71476 10.57470 1866 ft 154 kts 74°
2026-05-06 12:22 35.71772 10.58720 1877 ft 152 kts 76°
2026-05-06 12:22 35.72067 10.59951 1877 ft 149 kts 78°
2026-05-06 12:22 35.72358 10.61158 1869 ft 147 kts 76°
2026-05-06 12:23 35.72648 10.62366 1829 ft 148 kts 76°
2026-05-06 12:23 35.72943 10.63590 1695 ft 149 kts 76°
2026-05-06 12:23 35.73238 10.64812 1522 ft 148 kts 75°
2026-05-06 12:23 35.73529 10.66020 1341 ft 148 kts 76°
2026-05-06 12:24 35.73822 10.67240 1146 ft 150 kts 77°
2026-05-06 12:24 35.74110 10.68434 967 ft 137 kts 75°
2026-05-06 12:24 35.74379 10.69552 779 ft 134 kts 73°
2026-05-06 12:24 35.74638 10.70629 599 ft 129 kts 75°
2026-05-06 12:25 35.74896 10.71699 417 ft 129 kts 77°
2026-05-06 12:25 35.75160 10.72777 269 ft 131 kts 78°
2026-05-06 12:25 35.75414 10.73853 56 ft 129 kts 74°
2026-05-06 12:25 35.75648 10.74841 13 ft 99 kts 73°
2026-05-06 12:26 35.75791 10.75435 12 ft 49 kts 73°
2026-05-06 12:26 35.75856 10.75706 10 ft 27 kts 73°
2026-05-06 12:26 35.75904 10.75905 10 ft 22 kts 73°
2026-05-06 12:26 35.75945 10.76076 9 ft 20 kts 73°
2026-05-06 12:27 35.75983 10.76213 10 ft 14 kts 55°
2026-05-06 12:27 35.76071 10.76235 11 ft 15 kts 340°
2026-05-06 12:27 35.76122 10.76200 10 ft 8 kts 311°
2026-05-06 12:27 35.76126 10.76116 10 ft 13 kts 253°
2026-05-06 12:28 35.76102 10.76012 10 ft 17 kts 253°
2026-05-06 12:28 35.76049 10.75909 10 ft 15 kts 251°
2026-05-06 12:28 35.76019 10.75782 10 ft 18 kts 253°
2026-05-06 12:28 35.75985 10.75640 10 ft 19 kts 254°
2026-05-06 12:29 35.75946 10.75479 11 ft 21 kts 253°
2026-05-06 12:29 35.75921 10.75371 12 ft 8 kts 254°
2026-05-06 12:29 35.75966 10.75335 10 ft 2 kts 346°
2026-05-06 12:29 35.75980 10.75330 11 ft 2 kts 343°
2026-05-06 12:30 35.75982 10.75330 10 ft 0 kts 343°
2026-05-06 13:16 35.75982 10.75329 10 ft 0 kts 343°